Weather History for Riverside, CA

Change the Weather History Date:

Thursday, November 22, 2012

  Actual Average Record
Temperature  
Mean Temperature 63 °F 58 °F  
Max Temperature 78 °F 72 °F 90 °F (1924)
Min Temperature 48 °F 45 °F 29 °F (1941)
Degree Days  
Heating Degree Days 2 7  
Month to date heating degree days 78 102  
Since 1 July heating degree days 92 137  
Cooling Degree Days 0 0  
Month to date cooling degree days 26 24  
Year to date cooling degree days 2220 1753  
Growing Degree Days 12 (Base 50)    
Moisture  
Dew Point 48 °F    
Average Humidity 60    
Maximum Humidity 86    
Minimum Humidity 33    
Precipitation  
Precipitation 0.00 in 0.03 in 1.46 in (1965)
Month to date precipitation 0.12 0.71  
Year to date precipitation 3.22 10.58  
Since 1 July precipitation 0.37 1.39  
Snow  
Snow 0.00 in - - ()
Month to date snowfall 0.0  
Year to date snowfall 0.0  
Since 1 July snowfall 0.0  
Snow Depth 0.00 in    
Sea Level Pressure  
Sea Level Pressure 30.05 in    
Wind  
Wind Speed 2 mph (NE)    
Max Wind Speed 9 mph    
Max Gust Speed 13 mph    
Visibility 8 miles    
Events      
T = Trace of Precipitation, MM = Missing Value Source: NWS Daily Summary

Daily Weather History Graph

Daily Weather History Graph

Search for Another Location

Airport:

Trip Planner

Search our weather history database for the weather conditions in past years. The results will help you decide how hot, cold, wet, or windy it might be!

Date:

Astronomy

Nov. 22, 2012 Rise Set
Actual Time 6:29 AM PST 4:42 PM PST
Civil Twilight 6:02 AM PST 5:09 PM PST
Nautical Twilight 5:31 AM PST 5:40 PM PST
Astronomical Twilight 5:01 AM PST 6:10 PM PST
Moon 1:18 PM PST (11/22) 1:07 AM PST (11/22)
Length of Visible Light 11h 07m
Length of Day
10h 13m
Waxing Gibbous, 72% of the Moon is Illuminated
Nov 22
Waxing Gibbous
Nov 28
Full
Dec 6
Last Quarter
Dec 13
New
Dec 19
First Quarter

Hourly Weather History & Observations

Time (PST) Temp. Dew Point Humidity Pressure Visibility Wind Dir Wind Speed Gust Speed Precip Events Conditions
12:53 AM 53.1 °F 48.0 °F 83% 30.03 in 9.0 mi NE 4.6 mph - N/A   Clear
1:53 AM 50.0 °F 46.9 °F 89% 30.04 in 7.0 mi Calm Calm - N/A   Clear
2:53 AM 50.0 °F 46.0 °F 86% 30.03 in 8.0 mi Calm Calm - N/A   Clear
3:53 AM 48.0 °F 45.0 °F 89% 30.03 in 7.0 mi Calm Calm - N/A   Clear
4:53 AM 48.9 °F 45.0 °F 86% 30.04 in 7.0 mi Calm Calm - N/A   Clear
5:53 AM 48.9 °F 45.0 °F 86% 30.04 in 7.0 mi Calm Calm - N/A   Clear
6:53 AM 48.0 °F 44.1 °F 86% 30.06 in 6.0 mi NE 4.6 mph - N/A   Clear
7:53 AM 53.1 °F 45.0 °F 74% 30.08 in 7.0 mi NE 4.6 mph - N/A   Clear
8:53 AM 59.0 °F 48.0 °F 67% 30.08 in 7.0 mi Calm Calm - N/A   Clear
9:53 AM 64.9 °F 48.0 °F 54% 30.08 in 8.0 mi Calm Calm - N/A   Clear
10:53 AM 69.1 °F 48.9 °F 49% 30.06 in 8.0 mi WSW 3.5 mph - N/A   Clear
11:53 AM 73.0 °F 46.9 °F 39% 30.03 in 10.0 mi Variable 3.5 mph - N/A   Clear
12:53 PM 77.0 °F 48.0 °F 36% 30.00 in 10.0 mi Calm Calm - N/A   Clear
1:53 PM 77.0 °F 48.0 °F 36% 29.99 in 9.0 mi West 6.9 mph - N/A   Clear
2:53 PM 77.0 °F 46.0 °F 33% 29.99 in 9.0 mi West 5.8 mph - N/A   Clear
3:53 PM 73.9 °F 50.0 °F 43% 30.00 in 10.0 mi West 6.9 mph - N/A   Clear
4:53 PM 71.1 °F 50.0 °F 47% 30.02 in 10.0 mi Calm Calm - N/A   Clear
5:53 PM 66.9 °F 51.1 °F 57% 30.04 in 10.0 mi Calm Calm - N/A   Clear
6:53 PM 63.0 °F 51.1 °F 65% 30.06 in 10.0 mi Calm Calm - N/A   Clear
7:53 PM 62.1 °F 51.1 °F 67% 30.08 in 10.0 mi Calm Calm - N/A   Clear
8:53 PM 59.0 °F 48.9 °F 69% 30.09 in 9.0 mi ESE 3.5 mph - N/A   Clear
9:53 PM 57.0 °F 51.1 °F 81% 30.09 in 7.0 mi NE 3.5 mph - N/A   Clear
10:53 PM 57.0 °F 48.9 °F 74% 30.09 in 8.0 mi East 5.8 mph - N/A   Clear
11:53 PM 55.0 °F 46.0 °F 72% 30.09 in 10.0 mi East 4.6 mph - N/A   Clear